Starlink 1559

operational
NORAD ID: 46077 Int'l Des: 2020-055 Owner: SPXS Country: US Constellation: starlink
LEOCIRCULAR

Über Starlink 1559

Beschreibung wird geladen...

Live-Position

3D-Globus wird geladen...

Nächste Überflüge

Höhenverlauf

Altitude vs Time

uPlot chart will show altitude changes over time

Zweizeiliger Elementsatz

1 46077U 20055BC 26073.19879880 .00065914 00000-0 22254-2 0 9996
2 46077 53.0282 52.9457 0004472 58.3112 301.8322 15.30082126310275
Epoch: 14. März 2026 • Age: 21 hours

Aktueller Status

Höhe 477.1 km
Geschwindigkeit 7.63 km/s
Subsatellitenpunkt 36.96°N, 3.91°W
Startdatum 7. Aug. 2020
Alter 5.5 years
Typ internet

Technische Details

Klassifizierung Payload
Masse 260.00 kg
Trockenmasse 248.00 kg
Gesamtmasse 260.00 kg
Länge 0.20 m
Durchmesser 2.80 m
Spannweite 9.00 m
Form Box + pan
Hersteller SPXS
Bus-Typ Starlink
Phasenstatus In Orbit
Besitzer/Staat SPXS/US

Große Konstellationen

Loading constellations...